Weather History for KFOK - August, 2014

Change the Weather History Date:

Thursday, August 21, 2014

  Actual Average Record
Temperature  
Mean Temperature 66 °F -  
Max Temperature 78 °F 77 °F 88 °F (2005)
Min Temperature 57 °F 60 °F 46 °F (2008)
Cooling Degree Days 1    
Growing Degree Days 16 (Base 50)    
Moisture  
Dew Point 61 °F    
Average Humidity 76    
Maximum Humidity 90    
Minimum Humidity 62    
Precipitation  
Precipitation 0.00 in - - ()
Sea Level Pressure  
Sea Level Pressure 30.07 in    
Wind  
Wind Speed 4 mph (SE)    
Max Wind Speed 12 mph    
Max Gust Speed 16 mph    
Visibility 10 miles    
Events      
Averages and records for this station are not official NWS values.
T = Trace of Precipitation, MM = Missing Value Source: NWS Daily Summary

Daily Weather History Graph

Daily Weather History Graph

Search for Another Location

Airport or City:

Trip Planner

Search our weather history database for the weather conditions in past years. The results will help you decide how hot, cold, wet, or windy it might be!

Date:

Astronomy

Aug. 21, 2014 Rise Set
Actual Time 6:06 AM EDT 7:40 PM EDT
Civil Twilight 5:37 AM EDT 8:08 PM EDT
Nautical Twilight 5:02 AM EDT 8:43 PM EDT
Astronomical Twilight 4:25 AM EDT 9:20 PM EDT
Moon 2:33 AM EDT (8/21) 5:07 PM EDT (8/21)
Length of Visible Light 14h 31m
Length of Day
13h 33m
Waning Crescent, 13% of the Moon is Illuminated
Aug 21
Waning Crescent
Aug 25
New
Sep 2
First Quarter
Sep 8
Full
Sep 15
Last Quarter

Hourly Weather History & Observations

Time (EDT) Temp. Dew Point Humidity Pressure Visibility Wind Dir Wind Speed Gust Speed Precip Events Conditions
12:53 AM 57.9 °F 54.0 °F 87% 30.06 in 10.0 mi Calm Calm - N/A   Clear
1:53 AM 57.9 °F 54.0 °F 87% 30.06 in 10.0 mi Calm Calm - N/A   Clear
2:53 AM 59.0 °F 55.0 °F 87% 30.06 in 10.0 mi Calm Calm - N/A   Clear
3:53 AM 60.1 °F 55.9 °F 86% 30.05 in 10.0 mi Calm Calm - N/A   Clear
4:53 AM 59.0 °F 55.0 °F 87% 30.06 in 10.0 mi Calm Calm - N/A   Clear
5:53 AM 57.0 °F 54.0 °F 89% 30.06 in 10.0 mi Calm Calm - N/A   Clear
6:53 AM 57.9 °F 55.0 °F 90% 30.07 in 10.0 mi Calm Calm - N/A   Clear
7:53 AM 72.0 °F 64.0 °F 76% 30.08 in 10.0 mi NE 9.2 mph - N/A   Mostly Cloudy
8:53 AM 72.0 °F 62.1 °F 71% 30.09 in 10.0 mi East 6.9 mph - N/A   Overcast
9:53 AM 72.0 °F 63.0 °F 73% 30.09 in 10.0 mi ESE 4.6 mph - N/A   Overcast
10:53 AM 75.0 °F 62.1 °F 64% 30.09 in 10.0 mi Variable 4.6 mph - N/A   Overcast
11:53 AM 75.0 °F 61.0 °F 62% 30.08 in 10.0 mi ESE 9.2 mph - N/A   Scattered Clouds
12:53 PM 75.0 °F 61.0 °F 62% 30.08 in 10.0 mi SE 5.8 mph - N/A   Mostly Cloudy
1:53 PM 75.9 °F 62.1 °F 62% 30.08 in 10.0 mi SE 11.5 mph - N/A   Clear
2:53 PM 75.0 °F 63.0 °F 66% 30.07 in 10.0 mi ESE 9.2 mph 16.1 mph N/A   Clear
3:53 PM 75.0 °F 64.9 °F 71% 30.06 in 10.0 mi SE 8.1 mph - N/A   Scattered Clouds
4:10 PM 73.9 °F 64.0 °F 71% 30.06 in 10.0 mi SSE 9.2 mph - N/A   Mostly Cloudy
4:53 PM 73.0 °F 63.0 °F 71% 30.07 in 10.0 mi SSE 9.2 mph - N/A   Mostly Cloudy
5:26 PM 73.0 °F 64.9 °F 76% 30.07 in 10.0 mi SSE 6.9 mph - N/A   Scattered Clouds
5:36 PM 73.0 °F 64.0 °F 73% 30.07 in 10.0 mi SSE 8.1 mph - N/A   Mostly Cloudy
5:51 PM 71.6 °F 62.6 °F 73% 30.07 in 10.0 mi SE 8.1 mph - N/A   Scattered Clouds
5:53 PM 71.1 °F 63.0 °F 75% 30.07 in 10.0 mi SE 6.9 mph - N/A   Scattered Clouds
6:53 PM 71.1 °F 63.0 °F 75% 30.07 in 10.0 mi SE 3.5 mph - N/A   Clear
7:53 PM 70.0 °F 63.0 °F 78% 30.07 in 10.0 mi SE 3.5 mph - N/A   Mostly Cloudy
8:53 PM 70.0 °F 62.1 °F 76% 30.07 in 10.0 mi SE 6.9 mph - N/A   Overcast
9:53 PM 70.0 °F 62.1 °F 76% 30.07 in 10.0 mi Variable 3.5 mph - N/A   Overcast
10:53 PM 69.1 °F 62.1 °F 78% 30.07 in 10.0 mi South 4.6 mph - N/A   Scattered Clouds
11:53 PM 70.0 °F 62.1 °F 76% 30.07 in 10.0 mi SE 3.5 mph - N/A   Overcast